FW9042 Weather Reports


time (UTC)temp
C
wind
direction
speed
KPH
gust
KPH
rain 1hr
cm
rain 24hr
cm
rain mn
cm
humidity
%
barometer
mb
20260505140416 11 203 6.4 8.0 0.00 0.00 0.00 58 1009.5
20260505124829 12 146 8.0 11.3 0.00 0.00 0.00 58 1008.4
20260505124326 12 215 4.8 9.7 0.00 0.00 0.00 60 1008.4
20260505123822 12 162 11.3 16.1 0.00 0.00 0.00 60 1008.2
20260505123319 12 204 12.9 14.5 0.00 0.00 0.00 61 1008.0
20260505122815 11 150 11.3 16.1 0.00 0.00 0.00 61 1008.2
20260505122312 11 201 6.4 11.3 0.00 0.00 0.00 62 1007.9
20260505121809 11 196 8.0 11.3 0.00 0.00 0.00 62 1008.0
20260505121306 11 226 11.3 16.1 0.00 0.00 0.00 62 1007.9
20260505120802 11 142 6.4 9.7 0.00 0.00 0.00 62 1008.4
20260505120258 11 161 8.0 11.3 0.00 0.00 0.00 63 1008.0
20260505115757 11 155 6.4 8.0 0.00 0.00 0.00 64 1008.2
20260505115255 11 165 11.3 12.9 0.00 0.00 0.00 65 1008.0
20260505114752 11 224 8.0 11.3 0.00 0.00 0.00 66 1008.2
20260505114248 12 198 11.3 14.5 0.00 0.00 0.00 67 1008.4
20260505113745 12 177 4.8 9.7 0.00 0.00 0.00 67 1008.3
20260505113241 12 168 4.8 4.8 0.00 0.00 0.00 64 1008.4
20260505112737 12 225 3.2 3.2 0.00 0.00 0.00 63 1008.4
20260505112235 12 225 8.0 9.7 0.00 0.00 0.00 62 1008.4
20260505111735 12 163 4.8 4.8 0.00 0.00 0.00 63 1008.3
20260505111231 12 243 3.2 3.2 0.00 0.00 0.00 62 1008.4
20260505110727 12 254 1.6 1.6 0.00 0.00 0.00 61 1008.4
20260505110225 12 228 0.0 1.6 0.00 0.00 0.00 61 1008.6
20260505102200 12 202 4.8 8.0 0.00 0.00 0.00 59 1008.2
20260505101659 12 221 1.6 3.2 0.00 0.00 0.00 59 1008.3
20260505101154 12 224 1.6 3.2 0.00 0.00 0.00 59 1008.2
20260505100651 12 225 6.4 8.0 0.00 0.00 0.00 59 1008.2
20260505100148 12 243 1.6 1.6 0.00 0.00 0.00 59 1008.4
20260505095644 12 241 3.2 3.2 0.00 0.00 0.00 59 1008.0
20260505095142 12 237 1.6 1.6 0.00 0.00 0.00 59 1008.3
20260505094637 12 220 4.8 4.8 0.00 0.00 0.00 59 1008.5
20260505094134 12 244 1.6 1.6 0.00 0.00 0.00 59 1008.3
20260505093630 12 229 3.2 4.8 0.00 0.00 0.00 59 1008.3
20260505093128 12 212 6.4 8.0 0.00 0.00 0.00 58 1007.9
20260505092624 12 175 3.2 4.8 0.00 0.00 0.00 59 1008.3
20260505092124 12 155 4.8 9.7 0.00 0.00 0.00 60 1008.4
20260505091619 12 162 9.7 11.3 0.00 0.00 0.00 60 1008.3
20260505091118 12 194 3.2 4.8 0.00 0.00 0.00 61 1008.2
20260505090615 12 202 3.2 3.2 0.00 0.00 0.00 61 1008.2
20260505090114 12 216 4.8 8.0 0.00 0.00 0.00 61 1008.2
20260505085610 12 147 8.0 9.7 0.00 0.00 0.00 61 1008.5
20260505085109 12 166 4.8 9.7 0.00 0.00 0.00 61 1008.4
20260505084606 12 157 6.4 9.7 0.00 0.00 0.00 62 1008.3
20260505084104 12 164 3.2 4.8 0.00 0.00 0.00 61 1008.4
20260505083602 12 174 1.6 3.2 0.00 0.00 0.00 61 1008.3
20260505083058 12 151 6.4 8.0 0.00 0.00 0.00 61 1008.5
20260505082554 12 156 4.8 4.8 0.00 0.00 0.00 61 1008.9
20260505082051 12 164 8.0 9.7 0.00 0.00 0.00 61 1008.5
20260505081547 12 165 3.2 3.2 0.00 0.00 0.00 61 1008.7
20260505081044 12 171 3.2 9.7 0.00 0.00 0.00 61 1008.9
20260505080540 12 163 4.8 9.7 0.00 0.00 0.00 62 1008.6
20260505080037 12 163 4.8 8.0 0.00 0.00 0.00 62 1008.6
20260505075533 12 201 11.3 14.5 0.00 0.00 0.00 61 1008.7
20260505075030 12 219 8.0 11.3 0.00 0.00 0.00 61 1008.6
20260505074527 12 181 6.4 9.7 0.00 0.00 0.00 61 1008.6
20260505074024 12 177 6.4 20.9 0.00 0.00 0.00 60 1008.9
20260505073522 12 157 6.4 11.3 0.00 0.00 0.00 59 1008.6
20260505073020 12 196 11.3 14.5 0.00 0.00 0.00 59 1008.7
20260505072515 12 171 9.7 16.1 0.00 0.00 0.00 58 1008.6
20260505072012 12 138 6.4 9.7 0.00 0.00 0.00 58 1008.6
20260505071507 12 153 8.0 12.9 0.00 0.00 0.00 57 1008.5
20260505071006 12 132 12.9 14.5 0.00 0.00 0.00 57 1008.4
20260505070503 12 139 16.1 20.9 0.00 0.00 0.00 57 1008.5
20260505065958 12 148 16.1 20.9 0.00 0.00 0.00 57 1008.5
20260505065455 12 200 12.9 22.5 0.00 0.00 0.00 57 1008.5
20260505064951 12 191 8.0 11.3 0.00 0.00 0.00 56 1008.7
20260505064448 12 174 6.4 9.7 0.00 0.00 0.00 58 1009.0
20260505063947 12 140 9.7 16.1 0.00 0.00 0.00 58 1008.6
20260505063443 12 190 11.3 14.5 0.00 0.00 0.00 59 1008.4
20260505062939 12 149 9.7 11.3 0.00 0.00 0.00 59 1008.4
20260505062436 12 140 9.7 11.3 0.00 0.00 0.00 59 1008.6
20260505061933 12 191 4.8 4.8 0.00 0.00 0.00 60 1008.5
20260505061431 12 155 9.7 11.3 0.00 0.00 0.00 61 1008.6
20260505060929 12 192 14.5 17.7 0.00 0.00 0.00 61 1008.6
20260505060426 12 209 9.7 14.5 0.00 0.00 0.00 61 1008.6
20260505055922 12 147 16.1 20.9 0.00 0.00 0.00 61 1008.5
20260505055418 12 190 12.9 17.7 0.00 0.00 0.00 61 1008.9
20260505054915 12 197 6.4 9.7 0.00 0.00 0.00 60 1009.0
20260505054412 13 167 11.3 14.5 0.00 0.00 0.00 60 1008.5
20260505053910 13 207 12.9 17.7 0.00 0.00 0.00 59 1008.5
20260505053407 13 155 8.0 14.5 0.00 0.00 0.00 59 1008.3
20260505052904 13 140 11.3 17.7 0.00 0.00 0.00 60 1008.6
20260505052400 13 179 8.0 12.9 0.00 0.00 0.00 60 1008.6
20260505051858 13 159 16.1 24.1 0.00 0.00 0.00 61 1008.6
20260505051355 13 108 16.1 20.9 0.00 0.00 0.00 60 1008.3
20260505050853 13 164 14.5 17.7 0.00 0.00 0.00 60 1008.4
20260505050351 13 135 8.0 14.5 0.00 0.00 0.00 59 1008.3
20260505041319 16 156 11.3 14.5 0.00 0.00 0.00 44 1007.5
20260505040815 16 134 17.7 22.5 0.00 0.00 0.00 43 1007.5
20260505040313 16 148 9.7 16.1 0.00 0.00 0.00 43 1007.4
20260505035810 16 203 8.0 11.3 0.00 0.00 0.00 43 1007.2
20260505035305 16 209 9.7 11.3 0.00 0.00 0.00 43 1007.2
20260505034803 16 209 9.7 14.5 0.00 0.00 0.00 44 1007.2
20260505034259 16 201 8.0 11.3 0.00 0.00 0.00 44 1007.0
20260505033756 16 195 9.7 12.9 0.00 0.00 0.00 45 1007.1
20260505033254 16 212 11.3 14.5 0.00 0.00 0.00 47 1007.1
20260505032752 16 197 6.4 8.0 0.00 0.00 0.00 47 1006.7
20260505032247 16 210 6.4 9.7 0.00 0.00 0.00 47 1007.0
20260505031745 16 135 4.8 8.0 0.00 0.00 0.00 47 1007.1
20260505031241 16 179 6.4 9.7 0.00 0.00 0.00 46 1006.9
20260505030738 16 189 11.3 16.1 0.00 0.00 0.00 45 1007.0
20260505030234 16 219 8.0 9.7 0.00 0.00 0.00 44 1007.1
20260505025730 16 158 11.3 16.1 0.00 0.00 0.00 44 1006.9
20260505025228 16 208 12.9 16.1 0.00 0.00 0.00 44 1006.8
20260505024726 17 220 11.3 14.5 0.00 0.00 0.00 44 1006.8
20260505024223 17 214 9.7 11.3 0.00 0.00 0.00 44 1006.8
20260505023721 17 161 14.5 17.7 0.00 0.00 0.00 44 1006.5
20260505023218 17 207 8.0 12.9 0.00 0.00 0.00 44 1006.4
20260505022715 17 183 4.8 9.7 0.00 0.00 0.00 43 1006.4
20260505022212 17 153 17.7 24.1 0.00 0.00 0.00 41 1006.5
20260505021708 17 208 12.9 16.1 0.00 0.00 0.00 40 1006.2
20260505021206 17 163 14.5 16.1 0.00 0.00 0.00 40 1006.4
20260505020701 17 174 11.3 14.5 0.00 0.00 0.00 40 1006.2
20260505020157 17 167 8.0 12.9 0.00 0.00 0.00 42 1006.4
20260505015655 17 142 11.3 14.5 0.00 0.00 0.00 41 1006.2
20260505015151 17 183 12.9 22.5 0.00 0.00 0.00 40 1006.3
20260505014648 18 122 12.9 16.1 0.00 0.00 0.00 40 1006.3
20260505014145 18 163 17.7 25.7 0.00 0.00 0.00 40 1006.5
20260505013642 18 154 9.7 12.9 0.00 0.00 0.00 38 1006.2
20260505013139 20 170 4.8 4.8 0.00 0.00 0.00 33 1006.2
20260505012638 20 220 4.8 8.0 0.00 0.00 0.00 33 1006.5
20260505012134 20 229 0.0 0.0 0.00 0.00 0.00 33 1006.2
20260505011630 20 250 0.0 0.0 0.00 0.00 0.00 33 1006.2
20260505011127 20 254 1.6 1.6 0.00 0.00 0.00 33 1006.5
20260505010622 20 249 0.0 0.0 0.00 0.00 0.00 34 1006.5
20260505010119 20 191 1.6 3.2 0.00 0.00 0.00 33 1006.4
20260505005615 20 154 1.6 3.2 0.00 0.00 0.00 33 1006.7
20260505005112 20 236 1.6 3.2 0.00 0.00 0.00 33 1006.3
20260505004609 20 232 0.0 1.6 0.00 0.00 0.00 34 1006.5
20260505004106 20 235 1.6 1.6 0.00 0.00 0.00 34 1006.9
20260505003603 20 175 3.2 3.2 0.00 0.00 0.00 34 1006.4
20260505003101 19 178 3.2 4.8 0.00 0.00 0.00 34 1006.7
20260505002556 19 143 3.2 4.8 0.00 0.00 0.00 34 1006.8
20260505002055 19 101 6.4 8.0 0.00 0.00 0.00 34 1006.5
20260505001552 19 105 3.2 3.2 0.00 0.00 0.00 35 1006.8
20260505001049 19 64 4.8 8.0 0.00 0.00 0.00 35 1006.8
20260505000546 19 36 0.0 1.6 0.00 0.00 0.00 35 1006.9
20260505000044 19 84 4.8 8.0 0.00 0.00 0.00 35 1006.7
20260504235540 19 102 8.0 11.3 0.00 0.00 0.00 35 1006.9
20260504235037 18 93 3.2 8.0 0.00 0.00 0.00 37 1006.8
20260504234534 18 92 6.4 12.9 0.00 0.00 0.00 37 1006.8
20260504234031 19 70 6.4 9.7 0.00 0.00 0.00 36 1006.9
20260504233526 20 159 3.2 3.2 0.00 0.00 0.00 36 1007.0
20260504233023 19 191 4.8 4.8 0.00 0.00 0.00 36 1007.1
20260504232520 19 164 1.6 1.6 0.00 0.00 0.00 37 1007.6
20260504232018 18 170 3.2 3.2 0.00 0.00 0.00 37 1007.4
20260504231515 19 123 3.2 8.0 0.00 0.00 0.00 36 1007.4
20260504231011 19 146 8.0 12.9 0.00 0.00 0.00 36 1007.2
20260504230507 19 86 12.9 17.7 0.00 0.00 0.00 35 1007.0
20260504230006 19 92 12.9 16.1 0.00 0.00 0.00 37 1006.9
20260504225503 19 34 11.3 12.9 0.00 0.00 0.00 36 1007.0
20260504225000 20 88 6.4 11.3 0.00 0.00 0.00 34 1006.9
20260504224456 20 46 17.7 32.2 0.00 0.00 0.00 33 1006.9
20260504223953 21 32 6.4 9.7 0.00 0.00 0.00 33 1007.0
20260504223450 21 304 1.6 4.8 0.00 0.00 0.00 30 1007.0
20260504222945 20 316 3.2 4.8 0.00 0.00 0.00 30 1007.4
20260504222443 21 263 3.2 3.2 0.00 0.00 0.00 31 1007.0
20260504221940 21 240 8.0 11.3 0.00 0.00 0.00 31 1007.0
20260504221437 21 258 12.9 16.1 0.00 0.00 0.00 31 1007.1
20260504220934 20 261 4.8 8.0 0.00 0.00 0.00 31 1007.0
20260504220431 21 234 9.7 11.3 0.00 0.00 0.00 30 1007.0
20260504215928 20 254 4.8 4.8 0.00 0.00 0.00 32 1007.0
20260504215425 20 215 8.0 11.3 0.00 0.00 0.00 32 1007.5
20260504214921 20 246 12.9 14.5 0.00 0.00 0.00 33 1007.5
20260504214418 20 228 8.0 11.3 0.00 0.00 0.00 35 1007.5
20260504213914 19 242 9.7 14.5 0.00 0.00 0.00 35 1007.8
20260504213410 19 223 9.7 12.9 0.00 0.00 0.00 36 1007.2
20260504212908 18 213 12.9 20.9 0.00 0.00 0.00 38 1007.5
20260504212404 18 219 12.9 14.5 0.00 0.00 0.00 39 1007.5
20260504211902 18 231 16.1 24.1 0.00 0.00 0.00 39 1007.5
20260504211357 18 242 17.7 22.5 0.00 0.00 0.00 39 1007.6
20260504210855 18 205 16.1 17.7 0.00 0.00 0.00 39 1007.7
20260504210352 19 208 14.5 20.9 0.00 0.00 0.00 35 1007.4
20260504205849 20 239 9.7 11.3 0.00 0.00 0.00 31 1007.6
20260504205347 20 238 8.0 9.7 0.00 0.00 0.00 31 1007.7
20260504204845 20 269 4.8 4.8 0.00 0.00 0.00 32 1007.5
20260504204343 20 236 9.7 12.9 0.00 0.00 0.00 32 1007.6
20260504203842 20 222 8.0 9.7 0.00 0.00 0.00 34 1007.7
20260504203338 20 236 14.5 20.9 0.00 0.00 0.00 32 1007.6
20260504202834 20 247 8.0 11.3 0.00 0.00 0.00 32 1007.6
20260504202332 20 253 11.3 12.9 0.00 0.00 0.00 33 1007.8
20260504201828 21 213 3.2 4.8 0.00 0.00 0.00 31 1007.5
20260504201326 21 246 3.2 4.8 0.00 0.00 0.00 31 1007.6
20260504200823 21 224 1.6 1.6 0.00 0.00 0.00 32 1007.7
20260504200319 21 272 1.6 1.6 0.00 0.00 0.00 31 1007.8
20260504195815 21 233 0.0 0.0 0.00 0.00 0.00 31 1007.7
20260504195311 22 208 0.0 0.0 0.00 0.00 0.00 30 1007.9
20260504194808 21 209 0.0 1.6 0.00 0.00 0.00 30 1008.0
20260504194304 21 203 6.4 8.0 0.00 0.00 0.00 30 1007.9
20260504193801 21 194 0.0 1.6 0.00 0.00 0.00 30 1007.9
20260504193258 21 130 8.0 9.7 0.00 0.00 0.00 30 1008.0
20260504192757 21 215 3.2 3.2 0.00 0.00 0.00 30 1007.9
20260504192254 21 157 6.4 8.0 0.00 0.00 0.00 30 1007.9
20260504191753 21 183 1.6 3.2 0.00 0.00 0.00 31 1007.9
20260504191249 21 147 3.2 9.7 0.00 0.00 0.00 30 1007.9
20260504190745 21 186 1.6 3.2 0.00 0.00 0.00 30 1008.0
20260504190242 22 116 4.8 8.0 0.00 0.00 0.00 29 1008.0
20260504185738 22 178 0.0 0.0 0.00 0.00 0.00 30 1008.4
20260504185235 22 200 4.8 8.0 0.00 0.00 0.00 30 1008.5
20260504184731 22 234 4.8 8.0 0.00 0.00 0.00 29 1008.5
20260504184227 22 232 3.2 8.0 0.00 0.00 0.00 30 1008.5
20260504183723 21 131 9.7 11.3 0.00 0.00 0.00 30 1008.6
20260504183220 22 108 12.9 16.1 0.00 0.00 0.00 29 1008.5
20260504182718 21 165 4.8 8.0 0.00 0.00 0.00 31 1008.3
20260504182215 21 131 6.4 11.3 0.00 0.00 0.00 31 1008.9
20260504181713 21 153 8.0 11.3 0.00 0.00 0.00 32 1008.9
20260504181210 20 151 9.7 12.9 0.00 0.00 0.00 33 1008.7
20260504180709 21 150 11.3 14.5 0.00 0.00 0.00 32 1008.7
20260504180207 20 201 8.0 9.7 0.00 0.00 0.00 33 1009.0
20260504175704 21 122 8.0 17.7 0.00 0.00 0.00 33 1009.0
20260504175201 21 80 11.3 12.9 0.00 0.00 0.00 33 1008.9
20260504174659 21 156 4.8 11.3 0.00 0.00 0.00 33 1009.0
20260504174156 22 87 3.2 4.8 0.00 0.00 0.00 32 1009.1
20260504173652 21 158 8.0 11.3 0.00 0.00 0.00 32 1009.1
20260504173150 22 143 17.7 22.5 0.00 0.00 0.00 32 1009.0
20260504172646 21 138 11.3 14.5 0.00 0.00 0.00 33 1009.2
20260504172143 21 151 11.3 14.5 0.00 0.00 0.00 33 1009.2
20260504171639 20 138 8.0 12.9 0.00 0.00 0.00 34 1009.3
20260504171137 21 102 12.9 20.9 0.00 0.00 0.00 33 1009.4
20260504170633 21 141 14.5 17.7 0.00 0.00 0.00 33 1009.2
20260504170131 21 151 11.3 17.7 0.00 0.00 0.00 33 1009.2
20260504151016 17 124 1.6 3.2 0.00 0.00 0.00 46 1009.8
20260504150514 17 166 11.3 16.1 0.00 0.00 0.00 46 1009.9